| time (UTC) | temp F | wind direction | speed MPH | gust MPH | rain 1hr in | rain 24hr in | rain mn in | humidity % | barometer mb |
| 20260503033131 | 49 | 254 | 0.0 | 2.0 | 0.00 | 0.17 | 0.17 | 93 | 1014.0 |
| 20260503032631 | 50 | 269 | 0.0 | 2.0 | 0.00 | 0.17 | 0.17 | 93 | 1014.1 |
| 20260503032131 | 50 | 269 | 1.0 | 3.0 | 0.00 | 0.17 | 0.17 | 93 | 1014.0 |
| 20260503031852 | 50 | 270 | 1.0 | 3.0 | 0.00 | 0.17 | 0.17 | 93 | 1013.9 |
| 20260503031132 | 50 | 271 | 2.0 | 2.0 | 0.00 | 0.17 | 0.17 | 93 | 1013.8 |
| 20260503030632 | 50 | 269 | 1.0 | 2.0 | 0.00 | 0.17 | 0.17 | 93 | 1013.9 |
| 20260503030132 | 50 | 269 | 1.0 | 2.0 | 0.00 | 0.17 | 0.17 | 93 | 1013.5 |
| 20260503025632 | 50 | 269 | 1.0 | 2.0 | 0.00 | 0.17 | 0.17 | 92 | 1013.7 |
| 20260503025132 | 50 | 269 | 1.0 | 2.0 | 0.00 | 0.17 | 0.17 | 92 | 1013.7 |
| 20260503024632 | 50 | 272 | 0.0 | 4.0 | 0.00 | 0.17 | 0.17 | 92 | 1013.7 |
| 20260503024132 | 51 | 272 | 0.0 | 4.0 | 0.00 | 0.17 | 0.17 | 92 | 1013.6 |
| 20260503023632 | 51 | 275 | 1.0 | 3.0 | 0.00 | 0.17 | 0.17 | 92 | 1013.6 |
| 20260503023131 | 51 | 268 | 1.0 | 3.0 | 0.00 | 0.17 | 0.17 | 92 | 1013.3 |
| 20260503022631 | 51 | 266 | 1.0 | 3.0 | 0.00 | 0.17 | 0.17 | 92 | 1013.5 |
| 20260503022131 | 51 | 269 | 1.0 | 3.0 | 0.00 | 0.17 | 0.17 | 92 | 1013.5 |
| 20260503021632 | 51 | 273 | 0.0 | 0.0 | 0.00 | 0.17 | 0.17 | 92 | 1013.6 |
| 20260503021132 | 51 | 273 | 0.0 | 2.0 | 0.00 | 0.17 | 0.17 | 92 | 1013.7 |
| 20260503020632 | 51 | 273 | 0.0 | 2.0 | 0.00 | 0.17 | 0.17 | 92 | 1013.7 |
| 20260503020131 | 51 | 273 | 0.0 | 3.0 | 0.00 | 0.17 | 0.17 | 92 | 1013.4 |
| 20260503015631 | 51 | 274 | 1.0 | 3.0 | 0.00 | 0.17 | 0.17 | 92 | 1013.7 |
| 20260503015132 | 51 | 98 | 0.0 | 0.0 | 0.00 | 0.17 | 0.17 | 91 | 1013.5 |
| 20260503014631 | 51 | 99 | 0.0 | 0.0 | 0.00 | 0.17 | 0.17 | 91 | 1013.4 |
| 20260503014131 | 51 | 98 | 0.0 | 0.0 | 0.00 | 0.17 | 0.17 | 91 | 1013.5 |
| 20260503013855 | 51 | 98 | 0.0 | 0.0 | 0.00 | 0.17 | 0.17 | 91 | 1013.4 |
| 20260503013353 | 51 | 98 | 0.0 | 1.0 | 0.00 | 0.17 | 0.17 | 91 | 1013.1 |
| 20260503012631 | 51 | 98 | 0.0 | 1.0 | 0.00 | 0.17 | 0.17 | 91 | 1013.2 |
| 20260503012131 | 51 | 98 | 0.0 | 0.0 | 0.00 | 0.17 | 0.17 | 91 | 1013.1 |
| 20260503011631 | 51 | 98 | 0.0 | 0.0 | 0.00 | 0.17 | 0.17 | 90 | 1013.2 |
| 20260503011131 | 51 | 98 | 0.0 | 0.0 | 0.00 | 0.17 | 0.17 | 90 | 1013.0 |
| 20260503010631 | 51 | 98 | 0.0 | 0.0 | 0.00 | 0.17 | 0.17 | 90 | 1013.0 |
| 20260503010131 | 51 | 98 | 0.0 | 0.0 | 0.00 | 0.17 | 0.17 | 90 | 1012.8 |
| 20260503005631 | 52 | 98 | 0.0 | 0.0 | 0.00 | 0.17 | 0.17 | 90 | 1012.9 |
| 20260503005132 | 52 | 98 | 0.0 | 0.0 | 0.00 | 0.17 | 0.17 | 89 | 1012.8 |
| 20260503004631 | 52 | 98 | 0.0 | 0.0 | 0.00 | 0.17 | 0.17 | 89 | 1012.4 |
| 20260503004132 | 52 | 98 | 0.0 | 0.0 | 0.00 | 0.17 | 0.17 | 89 | 1012.5 |
| 20260503003632 | 52 | 98 | 0.0 | 0.0 | 0.00 | 0.17 | 0.17 | 89 | 1012.4 |
| 20260503003132 | 53 | 98 | 0.0 | 0.0 | 0.00 | 0.17 | 0.17 | 89 | 1012.5 |
| 20260503002853 | 53 | 98 | 0.0 | 0.0 | 0.00 | 0.17 | 0.17 | 89 | 1012.2 |
| 20260503002132 | 53 | 98 | 0.0 | 0.0 | 0.00 | 0.17 | 0.17 | 88 | 1012.3 |
| 20260503001631 | 53 | 98 | 0.0 | 0.0 | 0.00 | 0.17 | 0.17 | 88 | 1012.1 |
| 20260503001132 | 53 | 98 | 0.0 | 0.0 | 0.00 | 0.17 | 0.17 | 88 | 1011.7 |
| 20260503000631 | 54 | 98 | 0.0 | 0.0 | 0.00 | 0.17 | 0.17 | 88 | 1011.9 |
| 20260503000132 | 54 | 98 | 0.0 | 0.0 | 0.00 | 0.17 | 0.17 | 88 | 1012.0 |
| 20260502235632 | 54 | 98 | 0.0 | 0.0 | 0.00 | 0.17 | 0.17 | 88 | 1011.9 |
| 20260502235349 | 54 | 98 | 0.0 | 0.0 | 0.00 | 0.17 | 0.17 | 88 | 1011.9 |
| 20260502234631 | 54 | 98 | 0.0 | 1.0 | 0.00 | 0.17 | 0.17 | 88 | 1011.6 |
| 20260502234356 | 54 | 98 | 0.0 | 1.0 | 0.00 | 0.17 | 0.17 | 88 | 1011.7 |
| 20260502233632 | 54 | 98 | 0.0 | 1.0 | 0.00 | 0.17 | 0.17 | 88 | 1011.7 |
| 20260502233353 | 54 | 98 | 1.0 | 1.0 | 0.00 | 0.17 | 0.17 | 87 | 1011.6 |
| 20260502232859 | 54 | 97 | 0.0 | 1.0 | 0.00 | 0.17 | 0.17 | 87 | 1011.7 |
| 20260502232132 | 54 | 97 | 0.0 | 0.0 | 0.00 | 0.17 | 0.17 | 87 | 1011.7 |
| 20260502231850 | 54 | 97 | 0.0 | 0.0 | 0.00 | 0.17 | 0.17 | 87 | 1011.5 |
| 20260502231132 | 54 | 97 | 0.0 | 0.0 | 0.00 | 0.17 | 0.17 | 87 | 1011.6 |
| 20260502230632 | 54 | 97 | 0.0 | 1.0 | 0.00 | 0.17 | 0.17 | 87 | 1011.7 |
| 20260502230131 | 54 | 97 | 0.0 | 1.0 | 0.00 | 0.17 | 0.17 | 87 | 1011.3 |
| 20260502225631 | 54 | 97 | 0.0 | 0.0 | 0.00 | 0.17 | 0.17 | 87 | 1011.2 |
| 20260502225131 | 54 | 97 | 0.0 | 0.0 | 0.00 | 0.17 | 0.17 | 87 | 1011.6 |
| 20260502224632 | 54 | 97 | 0.0 | 0.0 | 0.00 | 0.17 | 0.17 | 87 | 1011.6 |
| 20260502224132 | 54 | 98 | 0.0 | 1.0 | 0.00 | 0.17 | 0.17 | 87 | 1011.5 |
| 20260502223632 | 54 | 98 | 0.0 | 1.0 | 0.00 | 0.17 | 0.17 | 86 | 1011.5 |
| 20260502223132 | 54 | 98 | 0.0 | 1.0 | 0.00 | 0.17 | 0.17 | 86 | 1011.4 |
| 20260502222632 | 54 | 98 | 0.0 | 1.0 | 0.00 | 0.17 | 0.17 | 86 | 1011.4 |
| 20260502222358 | 55 | 98 | 0.0 | 0.0 | 0.00 | 0.17 | 0.17 | 86 | 1011.4 |
| 20260502221631 | 55 | 98 | 0.0 | 0.0 | 0.00 | 0.17 | 0.17 | 86 | 1011.5 |
| 20260502221132 | 55 | 98 | 0.0 | 0.0 | 0.00 | 0.17 | 0.17 | 85 | 1011.3 |
| 20260502220632 | 55 | 98 | 0.0 | 0.0 | 0.00 | 0.17 | 0.17 | 85 | 1011.4 |
| 20260502220132 | 55 | 98 | 0.0 | 0.0 | 0.00 | 0.17 | 0.17 | 85 | 1011.2 |
| 20260502215632 | 55 | 98 | 0.0 | 0.0 | 0.00 | 0.17 | 0.17 | 85 | 1011.1 |
| 20260502215131 | 55 | 98 | 0.0 | 2.0 | 0.00 | 0.17 | 0.17 | 85 | 1011.1 |
| 20260502214631 | 55 | 98 | 0.0 | 2.0 | 0.00 | 0.17 | 0.17 | 85 | 1011.3 |
| 20260502214132 | 55 | 81 | 0.0 | 1.0 | 0.00 | 0.17 | 0.17 | 85 | 1011.2 |
| 20260502213632 | 55 | 81 | 0.0 | 2.0 | 0.00 | 0.17 | 0.17 | 85 | 1011.2 |
| 20260502213132 | 55 | 82 | 1.0 | 2.0 | 0.00 | 0.17 | 0.17 | 85 | 1011.2 |
| 20260502212632 | 55 | 76 | 1.0 | 1.0 | 0.00 | 0.17 | 0.17 | 86 | 1011.1 |
| 20260502212132 | 55 | 100 | 0.0 | 2.0 | 0.00 | 0.17 | 0.17 | 86 | 1011.1 |
| 20260502211632 | 55 | 142 | 0.0 | 2.0 | 0.00 | 0.17 | 0.17 | 86 | 1011.0 |
| 20260502211132 | 55 | 142 | 0.0 | 2.0 | 0.00 | 0.17 | 0.17 | 85 | 1011.0 |
| 20260502210632 | 55 | 142 | 0.0 | 3.0 | 0.00 | 0.17 | 0.17 | 85 | 1011.1 |
| 20260502210132 | 55 | 142 | 1.0 | 3.0 | 0.00 | 0.17 | 0.17 | 85 | 1011.2 |
| 20260502205632 | 55 | 132 | 0.0 | 2.0 | 0.00 | 0.17 | 0.17 | 85 | 1011.1 |
| 20260502205355 | 55 | 132 | 0.0 | 2.0 | 0.00 | 0.17 | 0.17 | 85 | 1011.3 |
| 20260502204632 | 55 | 62 | 1.0 | 2.0 | 0.00 | 0.17 | 0.17 | 86 | 1011.1 |
| 20260502204354 | 55 | 60 | 0.0 | 3.0 | 0.00 | 0.17 | 0.17 | 86 | 1011.1 |
| 20260502203631 | 55 | 60 | 0.0 | 3.0 | 0.00 | 0.17 | 0.17 | 86 | 1011.2 |
| 20260502203131 | 55 | 290 | 0.0 | 2.0 | 0.00 | 0.17 | 0.17 | 86 | 1011.3 |
| 20260502202631 | 55 | 289 | 0.0 | 3.0 | 0.00 | 0.17 | 0.17 | 86 | 1011.4 |
| 20260502202351 | 55 | 163 | 2.0 | 4.0 | 0.00 | 0.17 | 0.17 | 87 | 1011.2 |
| 20260502201632 | 55 | 68 | 0.0 | 4.0 | 0.00 | 0.17 | 0.17 | 88 | 1011.3 |
| 20260502201132 | 55 | 166 | 3.0 | 4.0 | 0.00 | 0.17 | 0.17 | 88 | 1011.0 |
| 20260502200632 | 55 | 153 | 2.0 | 3.0 | 0.00 | 0.17 | 0.17 | 88 | 1011.1 |
| 20260502200132 | 55 | 324 | 0.0 | 3.0 | 0.00 | 0.17 | 0.17 | 88 | 1011.3 |
| 20260502195631 | 55 | 88 | 0.0 | 3.0 | 0.00 | 0.17 | 0.17 | 88 | 1011.4 |
| 20260502195131 | 55 | 336 | 0.0 | 3.0 | 0.00 | 0.17 | 0.17 | 89 | 1011.2 |
| 20260502194631 | 55 | 218 | 1.0 | 4.0 | 0.00 | 0.17 | 0.17 | 90 | 1011.5 |
| 20260502194132 | 55 | 69 | 0.0 | 4.0 | 0.00 | 0.17 | 0.17 | 90 | 1011.6 |
| 20260502193632 | 54 | 127 | 0.0 | 4.0 | 0.00 | 0.17 | 0.17 | 90 | 1011.5 |
| 20260502193132 | 54 | 34 | 1.0 | 3.0 | 0.00 | 0.17 | 0.17 | 91 | 1011.6 |
| 20260502192632 | 54 | 78 | 1.0 | 2.0 | 0.00 | 0.17 | 0.17 | 91 | 1011.8 |
| 20260502192132 | 54 | 1 | 1.0 | 2.0 | 0.00 | 0.17 | 0.17 | 91 | 1011.7 |
| 20260502191632 | 54 | 95 | 0.0 | 3.0 | 0.00 | 0.17 | 0.17 | 92 | 1011.7 |
| 20260502190632 | 53 | 216 | 1.0 | 3.0 | 0.00 | 0.17 | 0.17 | 93 | 1012.0 |
| 20260502190132 | 53 | 126 | 0.0 | 3.0 | 0.00 | 0.17 | 0.17 | 93 | 1011.8 |
| 20260502185632 | 53 | 82 | 2.0 | 3.0 | 0.00 | 0.17 | 0.17 | 93 | 1011.8 |
| 20260502185132 | 53 | 151 | 1.0 | 4.0 | 0.00 | 0.17 | 0.17 | 93 | 1011.9 |
| 20260502184632 | 53 | 340 | 1.0 | 4.0 | 0.00 | 0.17 | 0.17 | 93 | 1011.9 |
| 20260502184131 | 53 | 198 | 2.0 | 3.0 | 0.00 | 0.17 | 0.17 | 94 | 1012.2 |
| 20260502183852 | 53 | 117 | 2.0 | 3.0 | 0.00 | 0.17 | 0.17 | 94 | 1012.0 |
| 20260502183132 | 53 | 169 | 1.0 | 3.0 | 0.00 | 0.17 | 0.17 | 94 | 1011.9 |
| 20260502182632 | 53 | 67 | 1.0 | 6.0 | 0.00 | 0.17 | 0.17 | 94 | 1011.9 |
| 20260502182132 | 53 | 170 | 1.0 | 6.0 | 0.00 | 0.17 | 0.17 | 94 | 1012.3 |
| 20260502181632 | 53 | 354 | 1.0 | 4.0 | 0.00 | 0.17 | 0.17 | 95 | 1012.1 |
| 20260502181132 | 52 | 144 | 3.0 | 3.0 | 0.00 | 0.17 | 0.17 | 95 | 1012.6 |
| 20260502180632 | 52 | 44 | 1.0 | 3.0 | 0.00 | 0.17 | 0.17 | 95 | 1012.6 |
| 20260502180132 | 52 | 22 | 1.0 | 3.0 | 0.00 | 0.17 | 0.17 | 95 | 1012.6 |
| 20260502170131 | 52 | 157 | 0.0 | 6.0 | 0.02 | 0.17 | 0.17 | 95 | 1012.7 |
| 20260502164132 | 51 | 338 | 0.0 | 3.0 | 0.02 | 0.17 | 0.17 | 95 | 1013.2 |
| 20260502163632 | 51 | 25 | 1.0 | 3.0 | 0.02 | 0.17 | 0.17 | 95 | 1013.3 |
| 20260502163353 | 51 | 49 | 1.0 | 4.0 | 0.01 | 0.16 | 0.16 | 95 | 1013.3 |
| 20260502162632 | 51 | 146 | 1.0 | 4.0 | 0.01 | 0.16 | 0.16 | 95 | 1013.2 |
| 20260502162131 | 51 | 13 | 1.0 | 4.0 | 0.01 | 0.16 | 0.16 | 95 | 1013.5 |
| 20260502161632 | 51 | 350 | 1.0 | 4.0 | 0.01 | 0.16 | 0.16 | 95 | 1013.5 |
| 20260502161132 | 51 | 27 | 1.0 | 4.0 | 0.01 | 0.16 | 0.16 | 95 | 1013.6 |
| 20260502160632 | 51 | 77 | 0.0 | 3.0 | 0.01 | 0.15 | 0.15 | 95 | 1013.7 |
| 20260502160131 | 51 | 79 | 0.0 | 3.0 | 0.01 | 0.15 | 0.15 | 95 | 1013.6 |
| 20260502152338 | 52 | 111 | 1.0 | 6.0 | 0.02 | 0.15 | 0.15 | 95 | 1013.3 |
| 20260502151620 | 51 | 346 | 0.0 | 3.0 | 0.02 | 0.15 | 0.15 | 95 | 1013.5 |
| 20260502151120 | 52 | 59 | 1.0 | 3.0 | 0.03 | 0.15 | 0.15 | 95 | 1013.2 |
| 20260502150620 | 52 | 61 | 0.0 | 3.0 | 0.03 | 0.15 | 0.15 | 95 | 1013.2 |
| 20260502150120 | 52 | 50 | 0.0 | 3.0 | 0.04 | 0.15 | 0.15 | 95 | 1013.7 |
| 20260502130120 | 51 | 336 | 0.0 | 6.0 | 0.03 | 0.05 | 0.05 | 91 | 1012.7 |
| 20260502123620 | 52 | 331 | 0.0 | 4.0 | 0.02 | 0.03 | 0.03 | 91 | 1012.4 |
| 20260502123120 | 51 | 345 | 1.0 | 3.0 | 0.02 | 0.03 | 0.03 | 90 | 1011.9 |
| 20260502122619 | 51 | 330 | 1.0 | 3.0 | 0.02 | 0.02 | 0.02 | 90 | 1012.0 |
| 20260502122120 | 52 | 335 | 3.0 | 4.0 | 0.02 | 0.02 | 0.02 | 90 | 1011.9 |
| 20260502121620 | 52 | 336 | 1.0 | 4.0 | 0.02 | 0.02 | 0.02 | 89 | 1012.1 |
| 20260502121120 | 52 | 335 | 1.0 | 4.0 | 0.02 | 0.02 | 0.02 | 89 | 1012.0 |
| 20260502120620 | 52 | 335 | 0.0 | 3.0 | 0.02 | 0.02 | 0.02 | 89 | 1012.1 |
| 20260502120119 | 52 | 352 | 1.0 | 6.0 | 0.02 | 0.02 | 0.02 | 89 | 1012.2 |
| 20260502115619 | 52 | 340 | 0.0 | 6.0 | 0.02 | 0.02 | 0.02 | 88 | 1012.2 |
| 20260502115119 | 52 | 337 | 2.0 | 3.0 | 0.02 | 0.02 | 0.02 | 88 | 1012.2 |
| 20260502114619 | 52 | 343 | 0.0 | 3.0 | 0.02 | 0.02 | 0.02 | 88 | 1012.3 |
| 20260502114119 | 52 | 327 | 0.0 | 3.0 | 0.01 | 0.01 | 0.01 | 88 | 1012.1 |
| 20260502113619 | 52 | 339 | 1.0 | 3.0 | 0.01 | 0.01 | 0.01 | 87 | 1012.2 |
| 20260502113343 | 52 | 326 | 0.0 | 4.0 | 0.01 | 0.01 | 0.01 | 86 | 1012.2 |
| 20260502112620 | 53 | 343 | 2.0 | 4.0 | 0.01 | 0.01 | 0.01 | 85 | 1012.1 |
| 20260502112120 | 53 | 342 | 0.0 | 3.0 | 0.01 | 0.01 | 0.01 | 85 | 1012.4 |
| 20260502111620 | 53 | 343 | 1.0 | 2.0 | 0.00 | 0.00 | 0.00 | 85 | 1012.4 |
| 20260502111120 | 53 | 332 | 0.0 | 3.0 | 0.00 | 0.00 | 0.00 | 84 | 1012.3 |
| 20260502110619 | 53 | 332 | 0.0 | 8.0 | 0.00 | 0.00 | 0.00 | 84 | 1012.4 |
| 20260502110120 | 54 | 357 | 6.0 | 8.0 | 0.00 | 0.00 | 0.00 | 83 | 1012.5 |
| 20260502105619 | 54 | 330 | 0.0 | 4.0 | 0.00 | 0.00 | 0.00 | 82 | 1012.6 |
| 20260502105343 | 54 | 343 | 1.0 | 7.0 | 0.00 | 0.00 | 0.00 | 82 | 1012.4 |
| 20260502104620 | 54 | 331 | 1.0 | 7.0 | 0.00 | 0.00 | 0.00 | 82 | 1012.4 |
| 20260502104120 | 54 | 326 | 0.0 | 6.0 | 0.00 | 0.00 | 0.00 | 83 | 1012.4 |
| 20260502103620 | 54 | 288 | 2.0 | 6.0 | 0.00 | 0.00 | 0.00 | 83 | 1012.3 |
| 20260502103120 | 54 | 284 | 1.0 | 4.0 | 0.00 | 0.00 | 0.00 | 83 | 1012.6 |
| 20260502102619 | 54 | 318 | 1.0 | 4.0 | 0.00 | 0.00 | 0.00 | 84 | 1012.4 |
| 20260502102119 | 54 | 258 | 1.0 | 3.0 | 0.00 | 0.00 | 0.00 | 84 | 1012.6 |
| 20260502101619 | 54 | 284 | 1.0 | 3.0 | 0.00 | 0.00 | 0.00 | 85 | 1012.2 |
| 20260502101119 | 54 | 354 | 1.0 | 4.0 | 0.00 | 0.00 | 0.00 | 85 | 1012.3 |
| 20260502100845 | 54 | 296 | 2.0 | 4.0 | 0.00 | 0.00 | 0.00 | 86 | 1012.4 |
| 20260502100120 | 54 | 273 | 3.0 | 4.0 | 0.00 | 0.00 | 0.00 | 86 | 1012.5 |
| 20260502091119 | 53 | 277 | 3.0 | 6.0 | 0.00 | 0.00 | 0.00 | 87 | 1012.4 |
| 20260502090619 | 53 | 297 | 2.0 | 6.0 | 0.00 | 0.00 | 0.00 | 87 | 1012.4 |
| 20260502090119 | 53 | 266 | 1.0 | 4.0 | 0.00 | 0.00 | 0.00 | 87 | 1012.4 |
| 20260502071120 | 53 | 268 | 0.0 | 0.0 | 0.00 | 0.00 | 0.00 | 87 | 1011.5 |
| 20260502070840 | 53 | 268 | 0.0 | 0.0 | 0.00 | 0.00 | 0.00 | 86 | 1011.5 |
| 20260502070119 | 53 | 268 | 0.0 | 0.0 | 0.00 | 0.00 | 0.00 | 86 | 1011.6 |
| 20260502065619 | 53 | 268 | 0.0 | 0.0 | 0.00 | 0.00 | 0.00 | 86 | 1011.6 |
| 20260502065119 | 53 | 268 | 0.0 | 0.0 | 0.00 | 0.00 | 0.00 | 86 | 1011.4 |
| 20260502064619 | 53 | 268 | 0.0 | 0.0 | 0.00 | 0.00 | 0.00 | 85 | 1011.7 |
| 20260502064119 | 53 | 268 | 0.0 | 0.0 | 0.00 | 0.00 | 0.00 | 85 | 1011.6 |
| 20260502063620 | 53 | 268 | 0.0 | 0.0 | 0.00 | 0.00 | 0.00 | 85 | 1011.7 |
| 20260502063119 | 53 | 268 | 0.0 | 0.0 | 0.00 | 0.00 | 0.00 | 85 | 1011.6 |
| 20260502062620 | 53 | 268 | 0.0 | 0.0 | 0.00 | 0.00 | 0.00 | 85 | 1011.8 |
| 20260502062119 | 53 | 268 | 0.0 | 0.0 | 0.00 | 0.00 | 0.00 | 85 | 1011.9 |
| 20260502061619 | 53 | 268 | 0.0 | 0.0 | 0.00 | 0.00 | 0.00 | 85 | 1011.9 |
| 20260502061119 | 53 | 268 | 0.0 | 0.0 | 0.00 | 0.00 | 0.00 | 85 | 1011.9 |
| 20260502060620 | 54 | 268 | 0.0 | 0.0 | 0.00 | 0.00 | 0.00 | 85 | 1011.9 |
| 20260502060120 | 53 | 268 | 0.0 | 0.0 | 0.00 | 0.00 | 0.00 | 85 | 1011.9 |
| 20260502055620 | 54 | 268 | 0.0 | 0.0 | 0.00 | 0.00 | 0.00 | 84 | 1012.0 |
| 20260502055120 | 54 | 268 | 0.0 | 0.0 | 0.00 | 0.00 | 0.00 | 84 | 1011.7 |
| 20260502054620 | 54 | 268 | 0.0 | 2.0 | 0.00 | 0.00 | 0.00 | 84 | 1012.0 |
| 20260502054120 | 54 | 268 | 0.0 | 2.0 | 0.00 | 0.00 | 0.00 | 84 | 1012.1 |
| 20260502053620 | 54 | 268 | 2.0 | 2.0 | 0.00 | 0.00 | 0.00 | 84 | 1012.1 |
| 20260502053120 | 54 | 268 | 0.0 | 0.0 | 0.00 | 0.00 | 0.00 | 84 | 1012.1 |
| 20260502052845 | 54 | 268 | 0.0 | 0.0 | 0.00 | 0.00 | 0.00 | 84 | 1012.3 |
| 20260502052120 | 54 | 268 | 0.0 | 0.0 | 0.00 | 0.00 | 0.00 | 84 | 1012.1 |
| 20260502051620 | 54 | 263 | 0.0 | 0.0 | 0.00 | 0.00 | 0.00 | 84 | 1012.3 |
| 20260502051120 | 54 | 119 | 0.0 | 0.0 | 0.00 | 0.00 | 0.00 | 84 | 1012.4 |
| 20260502050620 | 54 | 119 | 0.0 | 0.0 | 0.00 | 0.00 | 0.00 | 84 | 1012.5 |
| 20260502050119 | 54 | 119 | 0.0 | 0.0 | 0.00 | 0.00 | 0.00 | 84 | 1012.3 |
| 20260502045619 | 54 | 119 | 0.0 | 0.0 | 0.00 | 0.00 | 0.00 | 83 | 1012.4 |
| 20260502045346 | 54 | 119 | 0.0 | 0.0 | 0.00 | 0.00 | 0.00 | 83 | 1012.3 |
| 20260502044620 | 54 | 119 | 0.0 | 0.0 | 0.00 | 0.00 | 0.00 | 83 | 1012.3 |
| 20260502044120 | 54 | 119 | 0.0 | 0.0 | 0.00 | 0.00 | 0.00 | 83 | 1012.4 |
| 20260502043840 | 54 | 119 | 0.0 | 0.0 | 0.00 | 0.00 | 0.00 | 83 | 1012.4 |
| 20260502043119 | 54 | 119 | 0.0 | 0.0 | 0.00 | 0.00 | 0.00 | 83 | 1012.6 |
| 20260502042619 | 54 | 119 | 0.0 | 0.0 | 0.00 | 0.00 | 0.00 | 83 | 1012.3 |
| 20260502042119 | 54 | 119 | 0.0 | 0.0 | 0.00 | 0.00 | 0.00 | 83 | 1012.5 |
| 20260502041619 | 54 | 119 | 0.0 | 0.0 | 0.00 | 0.00 | 0.00 | 82 | 1012.5 |
| 20260502041119 | 54 | 119 | 0.0 | 0.0 | 0.00 | 0.00 | 0.00 | 82 | 1012.6 |
| 20260502040619 | 54 | 119 | 0.0 | 0.0 | 0.00 | 0.00 | 0.00 | 82 | 1012.6 |
| 20260502040119 | 54 | 119 | 0.0 | 0.0 | 0.00 | 0.00 | 0.00 | 82 | 1012.7 |
| 20260502035620 | 54 | 119 | 0.0 | 0.0 | 0.00 | 0.00 | 0.00 | 82 | 1012.9 |
| 20260502035119 | 54 | 119 | 0.0 | 0.0 | 0.00 | 0.00 | 0.00 | 82 | 1012.7 |
| 20260502034620 | 54 | 119 | 0.0 | 0.0 | 0.00 | 0.00 | 0.00 | 82 | 1012.6 |
| 20260502034120 | 54 | 119 | 0.0 | 0.0 | 0.00 | 0.00 | 0.00 | 83 | 1012.8 |
| 20260502033620 | 54 | 119 | 0.0 | 0.0 | 0.00 | 0.00 | 0.00 | 83 | 1012.8 |